World > North America > United States > New Jersey > Brick   Township of Brick, NJ

Brick, NJ Hourly Weather Updates

Feedback E-mail the Weather

Quick Clicks

Brick, NJ Weather Maps

°F °C°F °C
Brick Weather Map
UTC Time: 6/14/2024, 18:43
Your Time:

Brick, NJ Regional Weather

Expires:202406141900;;013231
ASUS41 KOKX 141811
RWROKX

Regional Weather Roundup
National Weather Service New York NY
200 PM EDT FRI JUN 14 2024

Note: "FAIR" indicates few or no clouds below 12,000 feet with no
significant weather and/or obstructions to visibility.


NJZ001-105-106-008-010-013-015-019>022-104-141900-
New Jersey
  
CITY           SKY/WX    TMP DP  RH WIND       PRES   REMARKS
Newark/Liberty PTSUNNY   91  66  43 NW10      29.85F HX  93           
Teterboro      PTSUNNY   86  67  52 CALM      29.84F                  
Caldwell       CLOUDY    84  64  50 W8        29.87F                  
Somerville     PTSUNNY   83  67  58 NW5       29.85F                  
Linden         PTSUNNY   88  64  45 N6        29.86F                  
Perth Amboy      N/A     81 N/A N/A N5          N/A                   
Sussex         CLOUDY    75  71  87 S3        29.89F                  
Andover          N/A     77  68  73 CALM      29.89F                  
Trenton        PTSUNNY   85  66  53 N7        29.85F                  
Millville      SUNNY     88  65  46 VRB7      29.86F HX  90           
Atlantic City  MOSUNNY   89  65  44 VRB6      29.86F HX  91           
Wrightstown    MOSUNNY   88  64  45 W6        29.84F                  
Toms River     PTSUNNY   90  67  46 W7        29.86F HX  93           
Belmar         MOSUNNY   89  69  51 NW7       29.87F HX  93           
$$
 

SKY/WX - Weather  TMP - Temperature  DP - Dew Point  RH - Humidity
WIND - Wind Direction/Speed PRES - Barometric Pressure VSB - Visibility
WCI - Wind Chill Index E13G22 Wind - East Wind 13 mph/Gusts of 22 mph

Trending Headlines

Trending Entertainment Headlines

Brick Radar Loop

Use the map search tool if you want to place a location marker on the radar map...

Brick Quick Facts

National Two Day Weather Forecast


E-mail the Brick Weather Forecast

Voice your opinion or tell us about page issues...